QPF
0.00 0.00 0.00 0.00 0.00 0.00 0.00 0.00 0.01 0.00 0.00 0.00 0.00 0.00 0.00 0.00 0.00 0.00 0.00 0.00 0.01 0.01 0.00 0.00 0.00 0.01 0.01 0.00 0.00 0.00 0.00 0.01 0.00 0.00 0.00 0.00 0.01 0.00 0.00 0.00 0.00 0.00 0.00
0.00 0.00 0.00 0.00 0.00 0.00 0.00 0.00 0.00 0.00 0.00 0.00 0.00 0.00 0.00 0.00 0.00 0.00 0.00 0.00 0.01 0.00 0.00 0.00 0.01 0.02 0.01 0.00 0.00 0.00 0.00 0.00 0.00 0.00 0.00 0.00 0.01 0.02 0.02 0.00 0.01 0.00 0.00
0.00 0.00 0.00 0.01 0.00 0.01 0.00 0.01 0.00 0.00 0.00 0.00 0.00 0.00 0.00 0.00 0.00 0.00 0.00 0.01 0.01 0.00 0.00 0.00 0.00 0.00 0.00 0.00 0.00 0.00 0.00 0.00 0.00 0.00 0.00 0.00 0.00 0.01 0.01 0.01 0.04 0.02 0.01
0.00 0.01 0.00 0.01 0.00 0.00 0.00 0.01 0.00 0.00 0.00 0.00 0.00 0.00 0.00 0.00 0.00 0.00 0.01 0.02 0.03 0.00 0.00 0.00 0.00 0.00 0.00 0.00 0.00 0.00 0.00 0.00 0.00 0.00 0.00 0.00 0.00 0.00 0.00 0.00 0.00 0.00 0.00
0.00 0.00 0.00 0.02 0.01 0.00 0.01 0.00 0.00 0.00 0.00 0.00 0.00 0.00 0.00 0.00 0.00 0.00 0.01 0.04 0.02 0.00 0.00 0.00 0.00 0.00 0.00 0.00 0.00 0.00 0.00 0.00 0.00 0.00 0.00 0.00 0.00 0.00 0.00 0.00 0.00 0.00 0.00
0.00 0.00 0.00 0.03 0.02 0.00 0.01 0.01 0.00 0.00 0.00 0.00 0.00 0.00 0.00 0.00 0.00 0.02 0.04 0.02 0.00 0.00 0.00 0.00 0.00 0.00 0.00 0.00 0.00 0.00 0.00 0.00 0.00 0.00 0.00 0.00 0.00 0.00 0.00 0.00 0.00 0.00 0.00
0.00 0.00 0.00 0.02 0.04 0.02 0.01 0.02 0.01 0.00 0.00 0.00 0.00 0.00 0.00 0.00 0.01 0.03 0.04 0.00 0.00 0.00 0.00 0.00 0.00 0.00 0.00 0.00 0.00 0.00 0.00 0.00 0.00 0.00 0.00 0.00 0.00 0.00 0.00 0.00 0.00 0.00 0.00
0.02 0.01 0.00 0.01 0.05 0.08 0.05 0.01 0.00 0.00 0.00 0.00 0.00 0.01 0.01 0.02 0.09 0.03 0.02 0.01 0.00 0.00 0.00 0.00 0.00 0.00 0.00 0.00 0.00 0.00 0.00 0.00 0.00 0.00 0.00 0.00 0.00 0.00 0.00 0.00 0.00 0.00 0.00
0.04 0.11 0.11 0.01 0.03 0.05 0.09 0.08 0.03 0.01 0.00 0.00 0.00 0.01 0.00 0.04 0.13 0.08 0.02 0.00 0.00 0.00 0.00 0.00 0.00 0.00 0.00 0.00 0.00 0.00 0.00 0.00 0.00 0.00 0.00 0.00 0.00 0.00 0.00 0.00 0.00 0.00 0.00
0.00 0.03 0.10 0.07 0.01 0.01 0.03 0.06 0.07 0.03 0.01 0.00 0.00 0.00 0.00 0.00 0.02 0.17 0.10 0.00 0.00 0.00 0.00 0.00 0.00 0.00 0.00 0.00 0.00 0.00 0.00 0.00 0.00 0.00 0.00 0.00 0.00 0.00 0.00 0.00 0.00 0.00 0.00
0.00 0.03 0.07 0.10 0.05 0.00 0.00 0.00 0.03 0.04 0.05 0.03 0.00 0.00 0.00 0.00 0.00 0.01 0.02 0.00 0.00 0.00 0.00 0.00 0.00 0.00 0.00 0.00 0.00 0.00 0.00 0.00 0.00 0.00 0.00 0.00 0.00 0.00 0.00 0.00 0.00 0.00 0.00
0.00 0.00 0.03 0.10 0.13 0.07 0.04 0.02 0.00 0.01 0.03 0.02 0.01 0.00 0.00 0.00 0.00 0.00 0.00 0.00 0.00 0.00 0.00 0.00 0.00 0.00 0.00 0.00 0.00 0.00 0.00 0.00 0.00 0.00 0.00 0.00 0.00 0.00 0.00 0.00 0.00 0.00 0.00
0.00 0.00 0.00 0.04 0.14 0.13 0.13 0.09 0.04 0.00 0.00 0.01 0.02 0.02 0.01 0.00 0.00 0.00 0.00 0.01 0.00 0.00 0.00 0.00 0.00 0.00 0.00 0.00 0.00 0.00 0.00 0.00 0.00 0.00 0.00 0.00 0.00 0.00 0.00 0.00 0.00 0.00 0.00
0.00 0.00 0.00 0.00 0.05 0.15 0.12 0.07 0.06 0.08 0.02 0.00 0.00 0.00 0.01 0.00 0.00 0.00 0.00 0.00 0.00 0.00 0.00 0.00 0.00 0.00 0.00 0.00 0.00 0.00 0.00 0.00 0.00 0.00 0.00 0.00 0.00 0.00 0.00 0.00 0.00 0.00 0.00
0.00 0.00 0.00 0.00 0.00 0.00 0.04 0.07 0.04 0.03 0.04 0.00 0.00 0.00 0.00 0.00 0.00 0.00 0.00 0.00 0.00 0.00 0.00 0.00 0.00 0.00 0.00 0.00 0.00 0.00 0.00 0.00 0.00 0.00 0.00 0.00 0.00 0.00 0.00 0.00 0.00 0.00 0.00
0.00 0.00 0.00 0.00 0.00 0.00 0.00 0.01 0.02 0.01 0.03 0.03 0.02 0.01 0.00 0.00 0.00 0.00 0.00 0.00 0.00 0.00 0.00 0.00 0.00 0.00 0.00 0.00 0.00 0.00 0.00 0.00 0.00 0.00 0.00 0.00 0.00 0.00 0.00 0.00 0.00 0.01 0.00
0.00 0.00 0.00 0.00 0.00 0.00 0.00 0.00 0.00 0.00 0.01 0.02 0.02 0.06 0.09 0.06 0.02 0.00 0.00 0.00 0.00 0.01 0.00 0.00 0.00 0.00 0.00 0.00 0.00 0.00 0.00 0.00 0.00 0.00 0.00 0.00 0.00 0.00 0.00 0.00 0.00 0.01 0.01
0.00 0.00 0.00 0.00 0.00 0.00 0.00 0.00 0.00 0.00 0.01 0.01 0.00 0.01 0.04 0.07 0.09 0.06 0.01 0.00 0.01 0.05 0.02 0.00 0.00 0.00 0.00 0.00 0.00 0.00 0.00 0.00 0.00 0.00 0.00 0.00 0.00 0.00 0.00 0.00 0.00 0.00 0.01
0.00 0.00 0.00 0.00 0.00 0.00 0.00 0.00 0.01 0.01 0.01 0.00 0.01 0.01 0.01 0.00 0.02 0.05 0.05 0.04 0.02 0.04 0.05 0.02 0.00 0.00 0.00 0.00 0.00 0.00 0.00 0.00 0.00 0.00 0.00 0.00 0.00 0.00 0.00 0.00 0.00 0.00 0.00
0.00 0.00 0.00 0.00 0.00 0.00 0.00 0.00 0.01 0.03 0.02 0.00 0.00 0.00 0.00 0.00 0.01 0.03 0.06 0.07 0.07 0.08 0.08 0.08 0.04 0.01 0.00 0.00 0.00 0.00 0.00 0.00 0.00 0.00 0.00 0.00 0.00 0.00 0.00 0.00 0.00 0.00 0.00
0.00 0.00 0.00 0.00 0.00 0.00 0.00 0.00 0.00 0.01 0.01 0.00 0.00 0.00 0.00 0.00 0.00 0.01 0.01 0.02 0.03 0.04 0.05 0.06 0.05 0.02 0.00 0.00 0.00 0.00 0.00 0.00 0.00 0.00 0.00 0.00 0.00 0.00 0.00 0.00 0.00 0.00 0.00
0.00 0.00 0.00 0.00 0.00 0.00 0.00 0.00 0.00 0.00 0.01 0.01 0.02 0.01 0.00 0.00 0.00 0.00 0.00 0.00 0.00 0.01 0.01 0.00 0.00 0.00 0.00 0.00 0.00 0.00 0.00 0.00 0.00 0.00 0.00 0.00 0.00 0.00 0.00 0.00 0.00 0.00 0.00
0.00 0.00 0.00 0.00 0.00 0.00 0.00 0.00 0.00 0.00 0.01 0.01 0.00 0.00 0.00 0.00 0.00 0.00 0.00 0.00 0.00 0.00 0.00 0.00 0.00 0.00 0.00 0.00 0.00 0.00 0.00 0.00 0.00 0.00 0.00 0.00 0.00 0.00 0.00 0.00 0.00 0.01 0.01
0.00 0.00 0.00 0.00 0.00 0.00 0.00 0.00 0.00 0.00 0.00 0.00 0.00 0.00 0.00 0.00 0.00 0.00 0.00 0.00 0.00 0.00 0.00 0.00 0.00 0.00 0.00 0.00 0.00 0.00 0.00 0.00 0.01 0.01 0.02 0.02 0.01 0.01 0.01 0.00 0.00 0.01 0.01
0.00 0.00 0.00 0.00 0.00 0.00 0.00 0.00 0.00 0.00 0.00 0.00 0.00 0.00 0.00 0.00 0.00 0.00 0.00 0.00 0.00 0.00 0.00 0.00 0.00 0.00 0.00 0.00 0.00 0.00 0.02 0.03 0.05 0.05 0.03 0.01 0.00 0.00 0.00 0.01 0.01 0.01 0.01
0.00 0.00 0.00 0.00 0.01 0.02 0.01 0.01 0.00 0.00 0.00 0.00 0.00 0.00 0.00 0.00 0.00 0.00 0.00 0.00 0.00 0.00 0.00 0.00 0.00 0.00 0.00 0.01 0.02 0.04 0.06 0.08 0.07 0.08 0.06 0.03 0.03 0.02 0.01 0.00 0.00 0.00 0.00
MSLP
1012.33 1012.11 1012.18 1012.42 1012.70 1013.06 1013.46 1013.64 1013.89 1014.13 1014.39 1014.60 1014.90 1015.22 1015.55 1015.85 1016.13 1016.34 1016.51 1016.59 1016.76 1016.85 1016.95 1017.09 1017.27 1017.41 1017.64 1017.84 1017.99 1018.27 1018.31 1018.28 1018.38 1018.46 1018.47 1018.42 1018.41 1018.45 1018.61 1018.70 1018.62 1018.46 1018.61
1012.39 1012.15 1012.30 1012.53 1012.85 1013.14 1013.57 1013.81 1014.03 1014.25 1014.53 1014.79 1015.01 1015.35 1015.68 1015.96 1016.24 1016.45 1016.60 1016.69 1016.78 1016.93 1017.15 1017.32 1017.42 1017.59 1017.71 1018.04 1018.33 1018.48 1018.58 1018.62 1018.71 1018.82 1018.82 1018.73 1018.69 1018.66 1018.76 1018.88 1018.85 1018.84 1018.91
1012.43 1012.24 1012.37 1012.56 1012.98 1013.24 1013.65 1013.96 1014.25 1014.46 1014.66 1014.88 1015.22 1015.50 1015.78 1016.04 1016.29 1016.52 1016.69 1016.80 1016.83 1017.00 1017.24 1017.45 1017.56 1017.99 1018.01 1018.33 1018.54 1018.70 1018.90 1019.00 1019.03 1019.05 1019.03 1018.76 1018.84 1018.88 1018.99 1019.08 1019.04 1019.03 1019.12
1012.48 1012.40 1012.50 1012.71 1013.07 1013.38 1013.68 1014.02 1014.39 1014.65 1014.82 1015.04 1015.37 1015.66 1015.89 1016.13 1016.30 1016.50 1016.65 1016.89 1016.96 1017.17 1017.50 1017.65 1017.95 1018.27 1018.56 1018.69 1018.75 1018.91 1019.10 1019.26 1019.30 1019.30 1019.04 1019.05 1019.06 1019.23 1019.19 1019.24 1019.22 1019.29 1019.37
1012.49 1012.51 1012.75 1012.79 1013.11 1013.36 1013.74 1014.11 1014.35 1014.68 1014.93 1015.12 1015.39 1015.65 1015.89 1016.11 1016.35 1016.47 1016.71 1017.02 1017.18 1017.42 1017.68 1018.02 1018.38 1018.67 1018.83 1018.94 1018.98 1019.11 1019.24 1019.47 1019.59 1019.49 1019.46 1019.46 1019.32 1019.47 1019.51 1019.64 1019.70 1019.79 1019.86
1012.76 1012.70 1012.72 1012.79 1013.08 1013.47 1013.79 1014.13 1014.44 1014.69 1014.95 1015.19 1015.40 1015.61 1015.89 1016.12 1016.37 1016.58 1016.88 1017.14 1017.28 1017.71 1018.01 1018.32 1018.57 1018.79 1019.00 1019.09 1019.19 1019.30 1019.47 1019.61 1019.75 1019.66 1019.68 1019.79 1019.70 1019.82 1019.89 1019.95 1020.02 1020.09 1020.14
1013.05 1012.91 1012.87 1012.87 1013.18 1013.45 1013.80 1014.10 1014.38 1014.66 1014.89 1015.16 1015.41 1015.64 1015.82 1016.11 1016.41 1016.79 1017.09 1017.32 1017.61 1017.91 1018.16 1018.45 1018.70 1018.91 1019.04 1019.13 1019.20 1019.45 1019.72 1019.92 1019.84 1019.93 1019.92 1019.99 1019.92 1020.01 1020.10 1020.17 1020.23 1020.27 1020.33
1013.34 1013.07 1013.02 1013.07 1013.13 1013.58 1013.74 1013.98 1014.23 1014.62 1014.88 1015.11 1015.32 1015.58 1015.82 1016.04 1016.43 1016.95 1017.16 1017.51 1017.86 1018.11 1018.34 1018.53 1018.72 1018.92 1019.10 1019.19 1019.37 1019.61 1019.91 1020.17 1020.17 1020.12 1020.16 1020.11 1020.13 1020.17 1020.28 1020.41 1020.46 1020.51 1020.59
1013.59 1013.43 1013.08 1013.12 1013.20 1013.57 1013.84 1014.01 1014.28 1014.55 1014.74 1015.03 1015.33 1015.55 1015.76 1016.02 1016.34 1016.79 1017.21 1017.52 1017.97 1018.26 1018.43 1018.62 1018.78 1018.95 1019.13 1019.27 1019.46 1019.71 1019.95 1020.16 1020.10 1020.29 1020.39 1020.34 1020.41 1020.36 1020.47 1020.62 1020.71 1020.77 1020.78
1014.09 1013.81 1013.53 1013.17 1013.31 1013.49 1013.75 1014.10 1014.26 1014.48 1014.77 1014.97 1015.28 1015.60 1015.91 1016.13 1016.34 1016.68 1016.96 1017.46 1017.76 1018.21 1018.57 1018.78 1018.91 1019.03 1019.15 1019.27 1019.52 1019.82 1020.05 1020.27 1020.15 1020.32 1020.38 1020.39 1020.53 1020.49 1020.63 1020.75 1020.78 1020.87 1020.93
1014.40 1014.26 1013.87 1013.66 1013.30 1013.47 1013.78 1014.08 1014.35 1014.40 1014.75 1014.96 1015.26 1015.63 1015.95 1016.09 1016.35 1016.65 1016.97 1017.45 1017.76 1018.04 1018.46 1018.90 1019.14 1019.25 1019.35 1019.44 1019.60 1019.85 1020.14 1020.09 1020.22 1020.28 1020.34 1020.56 1020.53 1020.52 1020.66 1020.78 1020.82 1020.86 1020.94
1014.69 1014.41 1014.26 1013.91 1013.72 1013.47 1013.64 1013.94 1014.27 1014.47 1014.73 1014.98 1015.21 1015.51 1015.83 1016.14 1016.34 1016.66 1017.11 1017.50 1017.86 1018.12 1018.40 1018.73 1019.11 1019.45 1019.71 1019.61 1019.70 1020.00 1019.92 1020.05 1020.18 1020.23 1020.31 1020.55 1020.53 1020.45 1020.60 1020.73 1020.83 1020.91 1021.01
1014.81 1014.53 1014.23 1014.03 1013.72 1013.67 1013.53 1013.61 1013.99 1014.36 1014.65 1014.90 1015.04 1015.28 1015.78 1016.07 1016.42 1016.77 1017.14 1017.52 1017.77 1018.18 1018.41 1018.73 1019.03 1019.29 1019.65 1019.92 1019.99 1019.97 1020.05 1020.15 1020.13 1020.17 1020.21 1020.39 1020.37 1020.27 1020.32 1020.58 1020.71 1020.80 1020.82
1014.54 1014.16 1013.89 1013.79 1013.75 1013.80 1013.74 1013.65 1013.57 1013.83 1014.26 1014.59 1014.82 1015.15 1015.51 1015.89 1016.26 1016.50 1016.87 1017.26 1017.57 1017.86 1018.13 1018.53 1019.00 1019.20 1019.65 1019.94 1020.07 1020.13 1020.24 1020.21 1020.20 1020.18 1020.12 1020.31 1020.23 1020.11 1020.04 1020.21 1020.44 1020.58 1020.65
1014.27 1013.73 1013.43 1013.39 1013.33 1013.31 1013.38 1013.23 1013.37 1013.48 1013.79 1014.04 1014.43 1014.79 1015.09 1015.44 1015.86 1016.21 1016.58 1016.98 1017.25 1017.64 1017.96 1018.36 1018.75 1019.18 1019.56 1019.87 1020.04 1020.06 1020.03 1020.04 1020.07 1020.08 1020.00 1020.12 1020.13 1020.10 1020.10 1020.03 1020.12 1020.22 1020.28
1013.73 1013.25 1013.13 1012.95 1012.80 1012.78 1012.87 1012.96 1013.14 1013.31 1013.39 1013.72 1014.19 1014.41 1014.75 1015.01 1015.31 1015.70 1016.13 1016.53 1016.96 1017.35 1017.81 1018.33 1018.60 1019.26 1019.64 1019.97 1019.90 1020.05 1019.96 1019.85 1019.81 1019.84 1019.80 1019.80 1019.98 1020.00 1020.06 1020.08 1019.92 1019.87 1019.89
1012.91 1012.69 1012.51 1012.49 1012.45 1012.52 1012.55 1012.64 1012.66 1012.97 1013.22 1013.37 1013.71 1014.00 1014.44 1014.82 1015.04 1015.32 1015.74 1016.37 1016.65 1017.11 1017.66 1018.10 1018.63 1018.89 1019.26 1019.79 1019.74 1019.80 1019.74 1019.63 1019.62 1019.42 1019.43 1019.49 1019.50 1019.73 1019.75 1019.78 1019.75 1019.65 1019.63
1012.20 1012.11 1011.96 1011.87 1011.82 1012.01 1012.14 1012.27 1012.28 1012.50 1012.78 1013.05 1013.31 1013.64 1013.90 1014.37 1014.79 1015.07 1015.54 1016.12 1016.66 1017.17 1017.42 1018.07 1018.35 1018.77 1018.89 1019.16 1019.48 1019.40 1019.35 1019.23 1019.15 1019.18 1019.08 1018.99 1019.05 1019.12 1019.25 1019.26 1019.21 1019.24 1019.20
1011.55 1011.43 1011.41 1011.47 1011.52 1011.44 1011.68 1011.82 1012.06 1012.30 1012.37 1012.66 1012.92 1013.26 1013.63 1013.96 1014.45 1014.87 1015.15 1015.57 1016.04 1016.67 1017.20 1017.64 1018.15 1018.59 1018.71 1018.72 1019.17 1019.04 1019.13 1018.83 1018.70 1018.64 1018.51 1018.53 1018.56 1018.61 1018.67 1018.68 1018.80 1018.93 1018.83
1010.96 1010.94 1011.02 1010.99 1011.06 1011.22 1011.37 1011.58 1011.91 1012.19 1012.36 1012.43 1012.58 1012.78 1013.31 1013.67 1014.33 1014.68 1015.10 1015.40 1015.74 1016.44 1016.86 1017.51 1017.87 1018.10 1018.55 1018.51 1018.77 1018.58 1018.74 1018.56 1018.36 1018.13 1017.95 1017.86 1017.94 1018.07 1018.10 1018.17 1018.23 1018.29 1018.37
1010.39 1010.34 1010.26 1010.44 1010.40 1010.82 1011.02 1011.19 1011.39 1011.55 1011.91 1012.19 1012.39 1012.46 1012.90 1013.25 1013.67 1014.19 1014.60 1015.12 1015.39 1015.84 1016.14 1016.40 1017.16 1017.44 1018.01 1018.00 1018.86 1018.27 1018.05 1017.95 1017.92 1017.46 1017.39 1017.54 1017.46 1017.55 1017.55 1017.73 1017.94 1018.01 1017.88
1009.55 1009.54 1009.52 1009.59 1009.88 1010.02 1010.26 1010.59 1010.67 1010.88 1011.45 1011.68 1012.13 1012.26 1012.54 1012.65 1013.13 1013.58 1013.98 1014.63 1014.93 1015.42 1015.77 1016.02 1016.16 1016.49 1016.72 1017.18 1017.94 1018.15 1017.87 1017.56 1017.07 1016.66 1016.79 1016.97 1016.96 1017.29 1017.45 1017.43 1017.47 1017.54 1017.59
1009.02 1008.80 1008.66 1008.66 1009.04 1009.34 1009.72 1010.14 1010.43 1010.88 1011.22 1011.60 1011.86 1012.04 1012.13 1012.39 1012.65 1012.99 1013.48 1013.64 1014.37 1014.80 1015.01 1015.22 1015.63 1015.56 1016.24 1016.91 1016.69 1016.70 1017.32 1017.78 1017.00 1016.41 1016.20 1016.21 1016.43 1016.76 1016.93 1017.04 1017.03 1017.20 1017.61
1008.07 1008.14 1008.08 1008.06 1008.42 1008.86 1009.26 1009.68 1009.78 1009.94 1010.21 1010.54 1010.81 1011.29 1011.75 1012.10 1012.31 1012.58 1012.88 1013.14 1013.74 1014.12 1014.34 1014.46 1014.91 1015.16 1015.46 1015.70 1016.41 1016.36 1016.36 1017.20 1017.14 1016.72 1016.35 1016.23 1016.44 1016.46 1016.65 1016.47 1016.59 1016.90 1017.24
1007.36 1007.28 1007.38 1007.69 1007.88 1008.37 1008.74 1009.23 1009.44 1009.69 1009.95 1010.14 1010.51 1010.91 1011.27 1011.63 1011.89 1012.02 1012.23 1012.62 1013.04 1013.25 1013.57 1013.78 1014.23 1014.52 1014.69 1014.99 1014.95 1015.54 1016.10 1016.85 1017.18 1017.16 1016.80 1016.52 1016.45 1016.32 1016.37 1016.42 1016.57 1016.74 1016.69
1006.74 1006.73 1006.87 1007.16 1007.32 1007.60 1008.01 1008.77 1008.99 1009.24 1009.65 1010.06 1010.30 1010.53 1010.74 1011.05 1011.32 1011.48 1011.60 1011.83 1012.10 1012.48 1012.64 1012.96 1013.32 1013.47 1013.72 1014.20 1014.36 1014.70 1015.13 1015.57 1016.16 1016.73 1016.95 1016.50 1016.23 1016.23 1016.10 1016.23 1016.40 1016.36 1016.41
Thickness
5759 5764 5767 5768 5768 5767 5766 5766 5765 5764 5764 5763 5761 5759 5757 5754 5752 5751 5751 5752 5751 5750 5749 5748 5747 5747 5745 5743 5742 5740 5740 5740 5740 5739 5739 5739 5739 5738 5736 5734 5733 5732 5730
5757 5760 5760 5761 5761 5762 5760 5761 5761 5760 5760 5759 5758 5756 5754 5752 5750 5749 5749 5749 5749 5749 5747 5746 5745 5744 5744 5741 5739 5739 5738 5738 5737 5736 5736 5736 5736 5736 5735 5733 5732 5729 5727
5754 5756 5756 5755 5753 5755 5754 5754 5754 5755 5755 5755 5754 5752 5751 5750 5749 5747 5747 5747 5747 5747 5746 5744 5744 5741 5741 5739 5737 5736 5735 5734 5734 5734 5734 5734 5733 5733 5732 5731 5730 5728 5726
5749 5751 5752 5751 5749 5748 5748 5748 5748 5748 5749 5750 5749 5748 5748 5747 5747 5746 5745 5745 5745 5743 5742 5741 5740 5738 5736 5736 5735 5734 5733 5732 5731 5731 5732 5731 5730 5729 5729 5728 5727 5725 5724
5745 5747 5746 5747 5745 5745 5743 5742 5743 5743 5744 5745 5745 5745 5745 5744 5744 5744 5743 5741 5741 5740 5738 5737 5735 5733 5733 5732 5732 5731 5730 5729 5728 5728 5727 5727 5727 5726 5725 5723 5722 5720 5719
5739 5741 5743 5744 5742 5740 5739 5738 5738 5739 5739 5739 5740 5741 5741 5741 5740 5740 5739 5738 5737 5734 5733 5732 5731 5730 5729 5729 5728 5728 5727 5726 5725 5725 5724 5723 5723 5722 5721 5720 5719 5717 5715
5732 5734 5736 5739 5738 5737 5735 5735 5734 5734 5735 5734 5735 5736 5738 5737 5736 5735 5735 5734 5732 5730 5729 5728 5727 5726 5726 5726 5726 5724 5723 5722 5722 5721 5721 5720 5719 5718 5717 5716 5714 5713 5712
5723 5727 5730 5732 5734 5732 5732 5733 5732 5731 5730 5730 5731 5732 5732 5732 5732 5730 5729 5729 5727 5726 5724 5723 5723 5723 5723 5722 5721 5721 5719 5718 5717 5717 5717 5717 5716 5715 5713 5711 5710 5709 5707
5714 5718 5722 5725 5728 5728 5727 5728 5728 5728 5728 5727 5726 5726 5727 5727 5727 5726 5725 5724 5723 5721 5721 5720 5718 5718 5718 5718 5718 5717 5716 5716 5714 5712 5711 5711 5710 5710 5709 5707 5705 5704 5702
5704 5708 5713 5718 5720 5722 5722 5722 5723 5723 5723 5724 5723 5721 5721 5721 5722 5721 5722 5719 5719 5717 5716 5715 5714 5713 5714 5714 5714 5713 5712 5711 5710 5709 5708 5707 5706 5705 5704 5702 5701 5699 5697
5694 5698 5704 5709 5714 5715 5716 5716 5717 5718 5717 5719 5718 5717 5716 5715 5716 5716 5716 5715 5713 5713 5712 5710 5709 5708 5708 5709 5709 5708 5707 5706 5705 5705 5704 5703 5702 5701 5699 5698 5697 5696 5694
5683 5689 5694 5700 5705 5709 5711 5710 5711 5712 5711 5711 5712 5712 5711 5710 5709 5709 5708 5708 5707 5707 5706 5705 5703 5702 5701 5702 5702 5701 5701 5701 5701 5701 5700 5699 5698 5697 5696 5694 5692 5691 5688
5672 5679 5685 5690 5697 5701 5705 5706 5705 5706 5706 5706 5707 5707 5706 5705 5704 5702 5701 5700 5700 5700 5699 5698 5697 5697 5696 5694 5694 5695 5695 5694 5695 5695 5696 5695 5694 5694 5693 5690 5688 5686 5684
5663 5671 5678 5683 5688 5693 5694 5699 5702 5703 5701 5702 5701 5701 5701 5701 5700 5699 5696 5694 5694 5694 5694 5693 5691 5691 5689 5688 5688 5688 5688 5689 5689 5689 5690 5690 5690 5690 5689 5687 5684 5682 5680
5655 5663 5670 5676 5682 5686 5690 5694 5696 5697 5698 5699 5698 5697 5697 5697 5696 5695 5692 5690 5689 5688 5687 5687 5686 5684 5684 5683 5682 5683 5683 5684 5684 5684 5685 5685 5685 5684 5683 5683 5681 5680 5678
5645 5655 5660 5668 5675 5679 5685 5688 5690 5690 5692 5693 5693 5692 5692 5693 5693 5692 5689 5686 5685 5684 5681 5679 5678 5675 5675 5674 5676 5676 5677 5679 5680 5680 5680 5680 5681 5680 5678 5676 5677 5676 5675
5640 5646 5654 5658 5664 5669 5676 5680 5684 5684 5686 5688 5688 5688 5687 5685 5686 5687 5686 5682 5681 5679 5676 5673 5670 5669 5669 5667 5670 5670 5672 5674 5674 5675 5676 5676 5676 5675 5674 5673 5672 5671 5670
5630 5637 5645 5651 5658 5661 5666 5672 5676 5678 5679 5680 5683 5682 5684 5681 5680 5681 5680 5677 5674 5672 5671 5666 5666 5664 5665 5664 5662 5666 5667 5670 5670 5670 5672 5672 5672 5671 5671 5670 5669 5667 5666
5622 5627 5632 5639 5645 5651 5655 5661 5666 5667 5671 5674 5675 5676 5678 5678 5675 5674 5674 5673 5672 5669 5666 5663 5660 5658 5659 5661 5658 5661 5661 5664 5665 5667 5667 5667 5668 5669 5666 5666 5665 5662 5661
5612 5616 5619 5625 5633 5636 5640 5647 5652 5656 5660 5664 5668 5670 5669 5670 5667 5667 5667 5667 5665 5662 5661 5657 5654 5653 5651 5653 5652 5654 5652 5656 5658 5662 5664 5665 5664 5662 5662 5661 5658 5656 5654
5598 5603 5608 5610 5621 5623 5629 5635 5641 5649 5651 5656 5659 5662 5663 5662 5663 5661 5662 5660 5660 5659 5658 5658 5653 5651 5647 5648 5642 5648 5649 5651 5651 5657 5659 5657 5657 5655 5657 5652 5650 5648 5648
5582 5589 5596 5602 5606 5614 5623 5628 5635 5643 5643 5647 5649 5652 5654 5658 5657 5658 5658 5656 5655 5654 5652 5652 5653 5650 5649 5646 5638 5636 5636 5642 5649 5652 5652 5651 5651 5647 5644 5644 5642 5642 5641
5570 5578 5588 5596 5599 5605 5614 5617 5623 5626 5631 5633 5638 5642 5649 5651 5651 5651 5651 5653 5651 5649 5649 5648 5646 5648 5641 5637 5639 5639 5628 5626 5634 5644 5647 5645 5642 5638 5635 5634 5635 5634 5630
5562 5566 5575 5585 5589 5592 5598 5605 5614 5623 5630 5635 5639 5640 5639 5640 5642 5643 5645 5646 5644 5643 5644 5646 5642 5639 5638 5637 5629 5631 5632 5627 5624 5628 5632 5632 5630 5632 5628 5628 5629 5627 5624
5557 5560 5564 5570 5578 5582 5588 5596 5604 5611 5619 5624 5628 5631 5634 5635 5636 5638 5638 5638 5639 5639 5639 5639 5635 5633 5632 5630 5631 5625 5622 5617 5615 5614 5618 5620 5620 5624 5622 5622 5620 5620 5619
5552 5553 5552 5558 5567 5574 5582 5585 5595 5603 5609 5614 5620 5624 5628 5630 5630 5632 5633 5635 5636 5634 5634 5633 5629 5627 5627 5623 5623 5622 5620 5617 5613 5607 5605 5609 5610 5615 5616 5615 5614 5614 5613